Location: Burbank
(38.7788°N, 114.0429°W)
Time: 13:25:56
(UTC+00:00)

Vanguard 2 - Pass Details

Date: 15 May 2026
Orbit: 553 x 2894 km, 32.9° (Epoch: 6 June)

Event Time Altitude Azimuth Distance (km) Brightness Sun altitude
Rises 14:36:44 0° 279° (W) 6,537 11.7 24.0°
Reaches altitude 10° 14:41:41 10° 274° (W) 5,302 11.3 25.0°
Maximum altitude 14:55:05 43° 211° (SSW) 2,551 10.2 27.6°
Drops below altitude 10° 15:03:50 10° 143° (SE) 3,499 11.5 29.3°
Sets 15:06:26 0° 136° (SE) 4,195 11.9 29.8°
